Escanaba, MI

10:47 PM EST on December 12, 2017 (GMT -0500)
Delta County

Weather History for KESC - December, 2013

Change the Weather History Date:

Saturday, December 7, 2013

  Actual Average Record
Temperature  
Mean Temperature 8 °F -  
Max Temperature 14 °F 30 °F 44 °F (1951)
Min Temperature 1 °F 16 °F -13 °F (1972)
Degree Days  
Heating Degree Days 58    
Moisture  
Dew Point -3 °F    
Average Humidity 65    
Maximum Humidity 85    
Minimum Humidity 41    
Precipitation  
Precipitation 0.00 in - - ()
Sea Level Pressure  
Sea Level Pressure 30.48 in    
Wind  
Wind Speed 11 mph (West)    
Max Wind Speed 15 mph    
Max Gust Speed 21 mph    
Visibility 10 miles    
Events      
Averages and records for this station are not official NWS values.
T = Trace of Precipitation, MM = Missing Value Source: NWS Daily Summary

Daily Weather History Graph

Daily Weather History Graph

Search for Another Location

Airport or City:

Trip Planner

Search our weather history database for the weather conditions in past years. The results will help you decide how hot, cold, wet, or windy it might be!

Date:

Astronomy

Dec. 07, 2013 Rise Set
Actual Time 8:15 AM EST 5:04 PM EST
Civil Twilight 7:41 AM EST 5:38 PM EST
Nautical Twilight 7:04 AM EST 6:15 PM EST
Astronomical Twilight 6:28 AM EST 6:51 PM EST
Moon 11:49 AM EST (12/7) 10:57 PM EST (12/7)
Length of Visible Light 9h 56m
Length of Day
8h 48m
Waxing Crescent, 29% of the Moon is Illuminated
Dec 7
Waxing Crescent
Dec 9
First Quarter
Dec 17
Full
Dec 25
Last Quarter
Jan 1
New

Hourly Weather History & Observations

Time (EST) Temp. Windchill Dew Point Humidity Pressure Visibility Wind Dir Wind Speed Gust Speed Precip Events Conditions
12:15 AM 6.8 °F -9.3 °F -0.4 °F 72% 30.38 in 10.0 mi West 12.7 mph 16.1 mph N/A   Clear
12:35 AM 6.8 °F -8.6 °F -0.4 °F 72% 30.38 in 10.0 mi West 11.5 mph - N/A   Clear
12:55 AM 6.8 °F -8.6 °F -0.4 °F 72% 30.38 in 10.0 mi West 11.5 mph - N/A   Clear
1:15 AM 5.0 °F -11.6 °F -2.2 °F 72% 30.38 in 10.0 mi West 12.7 mph - N/A   Clear
1:35 AM 5.0 °F -12.3 °F -2.2 °F 72% 30.38 in 10.0 mi West 13.8 mph - N/A   Clear
1:55 AM 5.0 °F -12.3 °F -0.4 °F 78% 30.39 in 10.0 mi West 13.8 mph - N/A   Clear
2:15 AM 5.0 °F -11.6 °F -2.2 °F 72% 30.39 in 10.0 mi West 12.7 mph - N/A   Clear
2:35 AM 5.0 °F -11.6 °F -2.2 °F 72% 30.40 in 10.0 mi West 12.7 mph - N/A   Clear
2:55 AM 3.2 °F -13.1 °F -2.2 °F 78% 30.41 in 10.0 mi West 11.5 mph 18.4 mph N/A   Clear
3:15 AM 3.2 °F -13.9 °F -2.2 °F 78% 30.42 in 10.0 mi West 12.7 mph - N/A   Clear
3:35 AM 3.2 °F -12.2 °F -2.2 °F 78% 30.43 in 10.0 mi WNW 10.4 mph - N/A   Clear
3:55 AM 3.2 °F -14.6 °F -4.0 °F 72% 30.42 in 10.0 mi West 13.8 mph 17.3 mph N/A   Clear
4:15 AM 3.2 °F -13.9 °F -2.2 °F 78% 30.43 in 10.0 mi WNW 12.7 mph - N/A   Clear
4:35 AM 3.2 °F -13.1 °F -4.0 °F 72% 30.43 in 10.0 mi WNW 11.5 mph - N/A   Clear
4:55 AM 3.2 °F -13.9 °F -2.2 °F 78% 30.44 in 10.0 mi WNW 12.7 mph - N/A   Clear
5:15 AM 3.2 °F -13.1 °F -4.0 °F 72% 30.44 in 10.0 mi WNW 11.5 mph - N/A   Clear
5:35 AM 3.2 °F -11.3 °F -2.2 °F 78% 30.45 in 10.0 mi West 9.2 mph - N/A   Clear
5:55 AM 3.2 °F -13.1 °F -5.8 °F 66% 30.45 in 10.0 mi West 11.5 mph - N/A   Clear
6:15 AM 3.2 °F -13.1 °F -2.2 °F 78% 30.46 in 10.0 mi West 11.5 mph - N/A   Clear
6:35 AM 3.2 °F -12.2 °F -5.8 °F 66% 30.46 in 10.0 mi West 10.4 mph - N/A   Clear
6:55 AM 1.4 °F -16.1 °F -4.0 °F 78% 30.46 in 10.0 mi West 12.7 mph 17.3 mph N/A   Clear
7:15 AM 1.4 °F -16.9 °F -5.8 °F 72% 30.47 in 10.0 mi West 13.8 mph - N/A   Clear
7:35 AM 1.4 °F -16.1 °F -5.8 °F 72% 30.47 in 10.0 mi West 12.7 mph - N/A   Clear
7:55 AM 1.4 °F -13.5 °F -4.0 °F 78% 30.48 in 10.0 mi WNW 9.2 mph - N/A   Clear
8:15 AM 1.4 °F -16.1 °F -5.8 °F 72% 30.48 in 10.0 mi WNW 12.7 mph - N/A   Clear
8:35 AM 1.4 °F -14.5 °F -2.2 °F 85% 30.48 in 10.0 mi West 10.4 mph - N/A   Clear
8:55 AM 1.4 °F -13.5 °F -5.8 °F 72% 30.50 in 10.0 mi West 9.2 mph - N/A   Clear
9:15 AM 1.4 °F -16.9 °F -5.8 °F 72% 30.50 in 10.0 mi West 13.8 mph 17.3 mph N/A   Clear
9:35 AM 3.2 °F -12.2 °F -4.0 °F 72% 30.50 in 10.0 mi West 10.4 mph - N/A   Clear
9:55 AM 3.2 °F -13.9 °F -5.8 °F 66% 30.51 in 10.0 mi WNW 12.7 mph - N/A   Clear
10:15 AM 3.2 °F -13.1 °F -2.2 °F 78% 30.52 in 10.0 mi WNW 11.5 mph - N/A   Clear
10:35 AM 6.8 °F -10.0 °F -5.8 °F 56% 30.51 in 10.0 mi WNW 13.8 mph - N/A   Clear
10:55 AM 6.8 °F -10.7 °F -0.4 °F 72% 30.52 in 10.0 mi WNW 15.0 mph - N/A   Clear
11:15 AM 8.6 °F -8.3 °F -2.2 °F 62% 30.53 in 10.0 mi WNW 15.0 mph - N/A   Clear
11:35 AM 8.6 °F -8.3 °F -0.4 °F 67% 30.53 in 10.0 mi West 15.0 mph - N/A   Clear
11:55 AM 10.4 °F -4.1 °F -2.2 °F 57% 30.53 in 10.0 mi West 11.5 mph - N/A   Clear
12:15 PM 10.4 °F -4.1 °F -2.2 °F 57% 30.52 in 10.0 mi WNW 11.5 mph - N/A   Clear
12:35 PM 10.4 °F -6.0 °F -0.4 °F 62% 30.51 in 10.0 mi West 15.0 mph 19.6 mph N/A   Clear
12:55 PM 10.4 °F -5.4 °F -2.2 °F 57% 30.51 in 10.0 mi West 13.8 mph 20.7 mph N/A   Clear
1:15 PM 12.2 °F -2.5 °F -2.2 °F 53% 30.50 in 10.0 mi West 12.7 mph 16.1 mph N/A   Clear
1:35 PM 12.2 °F -1.8 °F -2.2 °F 53% 30.51 in 10.0 mi West 11.5 mph 18.4 mph N/A   Clear
1:55 PM 12.2 °F -1.8 °F -2.2 °F 53% 30.50 in 10.0 mi West 11.5 mph 19.6 mph N/A   Clear
2:15 PM 12.2 °F -1.0 °F -4.0 °F 48% 30.50 in 10.0 mi WNW 10.4 mph - N/A   Clear
2:35 PM 14.0 °F -0.8 °F -5.8 °F 41% 30.49 in 10.0 mi West 13.8 mph - N/A   Clear
2:55 PM 14.0 °F -0.2 °F -4.0 °F 45% 30.49 in 10.0 mi WNW 12.7 mph - N/A   Clear
3:15 PM 12.2 °F -3.7 °F -4.0 °F 48% 30.49 in 10.0 mi West 15.0 mph 18.4 mph N/A   Clear
3:35 PM 12.2 °F -1.8 °F -5.8 °F 45% 30.50 in 10.0 mi WSW 11.5 mph - N/A   Clear
3:55 PM 12.2 °F -1.0 °F -5.8 °F 45% 30.50 in 10.0 mi West 10.4 mph - N/A   Clear
4:15 PM 12.2 °F -1.0 °F -5.8 °F 45% 30.50 in 10.0 mi West 10.4 mph - N/A   Clear
4:35 PM 12.2 °F 1.7 °F -5.8 °F 45% 30.50 in 10.0 mi WNW 6.9 mph - N/A   Clear
4:55 PM 10.4 °F 0.8 °F -4.0 °F 52% 30.50 in 10.0 mi WNW 5.8 mph - N/A   Clear
5:15 PM 10.4 °F - -7.6 °F 44% 30.50 in 10.0 mi Calm Calm - N/A   Clear
5:35 PM 10.4 °F 0.8 °F -2.2 °F 57% 30.50 in 10.0 mi WSW 5.8 mph - N/A   Clear
5:55 PM 8.6 °F 0.1 °F -4.0 °F 57% 30.51 in 10.0 mi WSW 4.6 mph - N/A   Clear
6:15 PM 8.6 °F -2.6 °F -2.2 °F 62% 30.51 in 10.0 mi WSW 6.9 mph - N/A   Clear
6:35 PM 8.6 °F 0.1 °F -4.0 °F 57% 30.51 in 10.0 mi WSW 4.6 mph - N/A   Clear
6:55 PM 6.8 °F -2.0 °F -4.0 °F 61% 30.52 in 10.0 mi WSW 4.6 mph - N/A   Clear
7:15 PM 6.8 °F -3.5 °F -2.2 °F 67% 30.52 in 10.0 mi SW 5.8 mph - N/A   Clear
7:35 PM 6.8 °F -4.8 °F -4.0 °F 61% 30.52 in 10.0 mi SW 6.9 mph - N/A   Clear
7:55 PM 6.8 °F -2.0 °F -2.2 °F 67% 30.52 in 10.0 mi WSW 4.6 mph - N/A   Clear
8:15 PM 6.8 °F -4.8 °F -4.0 °F 61% 30.51 in 10.0 mi WSW 6.9 mph - N/A   Clear
8:35 PM 6.8 °F -4.8 °F -2.2 °F 67% 30.52 in 10.0 mi West 6.9 mph - N/A   Clear
8:55 PM 5.0 °F -6.9 °F -2.2 °F 72% 30.51 in 10.0 mi West 6.9 mph - N/A   Clear
9:15 PM 5.0 °F -5.6 °F -5.8 °F 61% 30.52 in 10.0 mi WSW 5.8 mph - N/A   Clear
9:35 PM 5.0 °F -10.0 °F -0.4 °F 78% 30.52 in 10.0 mi West 10.4 mph - N/A   Clear
9:55 PM 5.0 °F -6.9 °F -5.8 °F 61% 30.51 in 10.0 mi WSW 6.9 mph - N/A   Clear
10:15 PM 3.2 °F -9.1 °F -2.2 °F 78% 30.51 in 10.0 mi West 6.9 mph - N/A   Clear
10:35 PM 3.2 °F -9.1 °F -4.0 °F 72% 30.51 in 10.0 mi West 6.9 mph - N/A   Clear
10:55 PM 3.2 °F -9.1 °F -5.8 °F 66% 30.52 in 10.0 mi West 6.9 mph - N/A   Clear
11:15 PM 3.2 °F -10.3 °F -5.8 °F 66% 30.52 in 10.0 mi West 8.1 mph - N/A   Clear
11:35 PM 3.2 °F -7.8 °F -5.8 °F 66% 30.52 in 10.0 mi West 5.8 mph - N/A   Clear
11:55 PM 1.4 °F -8.3 °F -4.0 °F 78% 30.52 in 10.0 mi West 4.6 mph - N/A   Clear